QTR221 EGKK-KLAX

Flight info

Callsign QTR221
Flight time N/A
Altitude 36000
Route LAM L10 BPK UN601 LESTA UP6 RODOL UM65 TENSO L603 BELOX DCT GOMUP/M085F360 NATD AVUTI/N0501F380 DCT KLIPS DCT GRAND DCT 55N086W DCT KALLU DCT MOT/N0499F400 DCT BOY DCT MLF J107 BLD DCT HAKMN MDNYT2
Aircraft A388/J-SADE2E3FGHIJ3J4J5M1RWXY/LB1D1

Departure

Time 2026-04-17 09:55
Airport London Gatwick Airport (EGKK)

Arrival

Time N/A
Airport Los Angeles International Airport (KLAX)
Time Latitude Longitude Altitude Speed Heading
2026-04-17 09:55 51.21088 -0.14697 5442 ft 357 kts 79°
2026-04-17 09:55 51.21588 -0.10905 6622 ft 342 kts 79°
2026-04-17 09:55 51.22062 -0.07268 7712 ft 328 kts 79°
2026-04-17 09:56 51.22516 -0.03778 8780 ft 315 kts 79°
2026-04-17 09:56 51.22954 -0.00405 9734 ft 308 kts 79°
2026-04-17 09:56 51.23389 0.02962 10158 ft 313 kts 80°
2026-04-17 09:56 51.24069 0.06289 10318 ft 330 kts 60°
2026-04-17 09:57 51.25548 0.09158 10461 ft 343 kts 37°
2026-04-17 09:57 51.27653 0.11013 10595 ft 352 kts 14°
2026-04-17 09:57 51.30085 0.11564 10896 ft 355 kts 356°
2026-04-17 09:57 51.32560 0.11454 11352 ft 357 kts 354°
2026-04-17 09:58 51.35056 0.11385 12048 ft 360 kts 357°
2026-04-17 09:58 51.37572 0.11492 12502 ft 364 kts 359°
2026-04-17 09:58 51.40116 0.11743 12951 ft 368 kts
2026-04-17 09:58 51.42679 0.12071 13420 ft 371 kts
2026-04-17 09:59 51.45269 0.12433 13864 ft 375 kts
2026-04-17 09:59 51.47843 0.12799 14279 ft 378 kts
2026-04-17 09:59 51.50474 0.13173 14698 ft 380 kts
2026-04-17 09:59 51.53117 0.13547 15134 ft 382 kts
2026-04-17 10:00 51.55806 0.13926 15556 ft 384 kts
2026-04-17 10:00 51.58445 0.14297 15958 ft 387 kts
2026-04-17 10:00 51.61140 0.14570 16331 ft 387 kts 353°
2026-04-17 10:00 51.63752 0.13754 16714 ft 381 kts 334°
2026-04-17 10:01 51.66026 0.11691 17095 ft 373 kts 315°
2026-04-17 10:01 51.67737 0.08635 17500 ft 366 kts 299°
2026-04-17 10:01 51.69050 0.05124 17873 ft 366 kts 295°
2026-04-17 10:01 51.70303 0.01546 18273 ft 368 kts 295°
2026-04-17 10:02 51.71606 -0.02026 18578 ft 371 kts 296°
2026-04-17 10:02 51.72968 -0.05590 18902 ft 374 kts 297°
2026-04-17 10:02 51.74516 -0.08991 19246 ft 381 kts 307°
2026-04-17 10:02 51.76474 -0.11927 19593 ft 389 kts 317°
2026-04-17 10:03 51.78775 -0.14318 19917 ft 396 kts 325°
2026-04-17 10:03 51.81169 -0.16538 20256 ft 398 kts 324°
2026-04-17 10:03 51.83562 -0.18811 20595 ft 400 kts 323°
2026-04-17 10:03 51.85960 -0.21107 20941 ft 402 kts 323°
2026-04-17 10:04 51.88370 -0.23417 21282 ft 403 kts 323°
2026-04-17 10:04 51.90786 -0.25731 21619 ft 405 kts 323°
2026-04-17 10:04 51.93217 -0.28060 21925 ft 406 kts 323°
2026-04-17 10:04 51.95655 -0.30398 22238 ft 408 kts 323°
2026-04-17 10:05 51.98106 -0.32751 22551 ft 410 kts 323°
2026-04-17 10:05 52.00564 -0.35113 22864 ft 412 kts 323°
2026-04-17 10:05 52.03032 -0.37487 23172 ft 413 kts 323°
2026-04-17 10:05 52.05512 -0.39875 23478 ft 415 kts 322°
2026-04-17 10:06 52.08003 -0.42279 23759 ft 417 kts 322°
2026-04-17 10:06 52.10502 -0.44692 24034 ft 418 kts 322°
2026-04-17 10:06 52.13004 -0.47112 24310 ft 419 kts 322°
2026-04-17 10:06 52.15512 -0.49540 24580 ft 420 kts 322°
2026-04-17 10:07 52.18022 -0.51974 24850 ft 421 kts 322°
2026-04-17 10:07 52.20548 -0.54426 25123 ft 422 kts 322°
2026-04-17 10:07 52.23040 -0.56850 25413 ft 423 kts 322°
2026-04-17 10:07 52.25574 -0.59316 25690 ft 425 kts 322°
2026-04-17 10:08 52.28113 -0.61792 25975 ft 426 kts 322°
2026-04-17 10:08 52.30664 -0.64284 26270 ft 428 kts 322°
2026-04-17 10:08 52.33222 -0.66785 26575 ft 429 kts 322°
2026-04-17 10:08 52.35790 -0.69299 26891 ft 431 kts 322°
2026-04-17 10:09 52.38366 -0.71825 27192 ft 432 kts 322°
2026-04-17 10:09 52.40949 -0.74361 27519 ft 434 kts 322°
2026-04-17 10:09 52.43541 -0.76909 27824 ft 435 kts 322°
2026-04-17 10:09 52.46144 -0.79471 28143 ft 437 kts 322°
2026-04-17 10:10 52.48754 -0.82043 28453 ft 439 kts 322°
2026-04-17 10:10 52.51375 -0.84630 28762 ft 440 kts 322°
2026-04-17 10:10 52.54004 -0.87230 29058 ft 443 kts 322°
2026-04-17 10:11 52.59309 -0.92486 29686 ft 447 kts 322°
2026-04-17 10:11 52.61973 -0.95130 29995 ft 448 kts 322°
2026-04-17 10:11 52.64647 -0.97788 30291 ft 450 kts 321°
2026-04-17 10:11 52.67328 -1.00456 30620 ft 451 kts 321°
2026-04-17 10:12 52.70021 -1.03142 30815 ft 454 kts 321°
2026-04-17 10:12 52.72711 -1.05873 31116 ft 452 kts 318°
2026-04-17 10:12 52.75196 -1.08987 31416 ft 446 kts 311°
2026-04-17 10:12 52.77445 -1.12481 31699 ft 444 kts 308°
2026-04-17 10:13 52.79687 -1.16022 31954 ft 446 kts 309°
2026-04-17 10:13 52.81947 -1.19550 32262 ft 447 kts 309°
2026-04-17 10:13 52.84209 -1.23084 32604 ft 448 kts 309°
2026-04-17 10:13 52.86476 -1.26643 32957 ft 450 kts 309°
2026-04-17 10:14 52.88753 -1.30225 33262 ft 452 kts 308°
2026-04-17 10:14 52.91029 -1.33814 33562 ft 452 kts 308°
2026-04-17 10:14 52.93308 -1.37417 33840 ft 454 kts 308°
2026-04-17 10:14 52.95593 -1.41036 34091 ft 455 kts 308°
2026-04-17 10:15 52.97884 -1.44669 34296 ft 457 kts 308°
2026-04-17 10:15 53.00155 -1.48277 34509 ft 459 kts 308°
2026-04-17 10:15 53.02460 -1.51945 34724 ft 460 kts 308°
2026-04-17 10:15 53.04777 -1.55638 34913 ft 463 kts 308°
2026-04-17 10:16 53.07105 -1.59355 35123 ft 464 kts 308°
2026-04-17 10:16 53.09433 -1.63073 35409 ft 464 kts 308°
2026-04-17 10:16 53.11761 -1.66798 35655 ft 464 kts 308°
2026-04-17 10:16 53.14084 -1.70523 35901 ft 464 kts 308°
2026-04-17 10:17 53.16410 -1.74258 36071 ft 466 kts 308°
2026-04-17 10:17 53.21137 -1.81864 36058 ft 479 kts 310°
2026-04-17 10:17 53.23727 -1.85485 36049 ft 492 kts 316°
2026-04-17 10:18 53.26585 -1.88755 36036 ft 505 kts 321°
2026-04-17 10:18 53.32802 -1.94647 36057 ft 520 kts 323°
2026-04-17 10:19 53.39158 -2.00729 36056 ft 532 kts 323°
2026-04-17 10:19 53.45620 -2.06894 36697 ft 528 kts 324°
2026-04-17 10:19 53.48795 -2.09894 37391 ft 520 kts 324°
2026-04-17 10:20 53.51935 -2.12845 37937 ft 515 kts 324°
2026-04-17 10:20 53.55059 -2.15769 38286 ft 513 kts 325°
2026-04-17 10:20 53.58176 -2.18680 38596 ft 513 kts 325°
2026-04-17 10:20 53.61296 -2.21588 38815 ft 512 kts 325°
2026-04-17 10:21 53.64419 -2.24492 39007 ft 512 kts 326°
2026-04-17 10:21 53.67542 -2.27391 39176 ft 513 kts 326°
2026-04-17 10:21 53.70666 -2.30286 39343 ft 513 kts 326°
2026-04-17 10:21 53.73799 -2.33183 39503 ft 514 kts 326°
2026-04-17 10:22 53.76941 -2.36084 39621 ft 515 kts 326°
2026-04-17 10:22 53.80089 -2.38984 39755 ft 516 kts 326°
2026-04-17 10:22 53.83241 -2.41881 40006 ft 514 kts 326°
2026-04-17 10:22 53.86338 -2.44721 40235 ft 512 kts 327°
2026-04-17 10:23 53.89518 -2.47630 40395 ft 512 kts 327°
2026-04-17 10:23 53.92610 -2.50455 40540 ft 513 kts 327°
2026-04-17 10:23 53.95754 -2.53322 40676 ft 513 kts 327°
2026-04-17 10:23 53.98899 -2.56185 40800 ft 513 kts 327°
2026-04-17 10:24 54.02050 -2.59049 40940 ft 514 kts 327°
2026-04-17 10:24 54.05210 -2.61918 41046 ft 515 kts 327°
2026-04-17 10:24 54.08370 -2.64783 41186 ft 515 kts 327°
2026-04-17 10:24 54.11537 -2.67651 41304 ft 516 kts 327°
2026-04-17 10:25 54.14710 -2.70519 41413 ft 516 kts 327°
2026-04-17 10:25 54.17881 -2.73383 41536 ft 517 kts 327°
2026-04-17 10:25 54.21066 -2.76254 41656 ft 517 kts 327°
2026-04-17 10:25 54.24243 -2.79116 41772 ft 517 kts 328°
2026-04-17 10:26 54.27432 -2.81984 41872 ft 517 kts 328°
2026-04-17 10:26 54.30619 -2.84846 41998 ft 518 kts 328°
2026-04-17 10:26 54.33811 -2.87710 42107 ft 518 kts 328°
2026-04-17 10:26 54.37001 -2.90568 42212 ft 518 kts 328°
2026-04-17 10:27 54.40198 -2.93429 42335 ft 518 kts 328°
2026-04-17 10:27 54.43395 -2.96287 42452 ft 518 kts 328°
2026-04-17 10:27 54.46598 -2.99146 42570 ft 518 kts 328°
2026-04-17 10:27 54.49798 -3.01999 42672 ft 518 kts 329°
2026-04-17 10:28 54.53004 -3.04852 42780 ft 518 kts 329°
2026-04-17 10:28 54.59414 -3.10550 42982 ft 518 kts 329°
2026-04-17 10:29 54.65827 -3.16237 43213 ft 518 kts 329°
2026-04-17 10:29 54.71160 -3.20959 43402 ft 518 kts 329°
2026-04-17 10:29 54.74367 -3.23796 43510 ft 518 kts 329°
2026-04-17 10:30 54.77575 -3.26629 43594 ft 517 kts 329°
2026-04-17 10:30 54.83976 -3.32274 43762 ft 516 kts 330°
2026-04-17 10:31 54.90370 -3.37901 43933 ft 514 kts 330°
2026-04-17 10:31 54.96750 -3.43506 44108 ft 513 kts 330°
2026-04-17 10:32 55.03115 -3.49088 44247 ft 511 kts 330°
2026-04-17 10:32 55.09464 -3.54649 44370 ft 510 kts 330°
2026-04-17 10:33 55.15797 -3.60193 44490 ft 508 kts 330°
2026-04-17 10:33 55.22110 -3.65715 44606 ft 506 kts 330°
2026-04-17 10:34 55.28401 -3.71216 44707 ft 504 kts 330°
2026-04-17 10:34 55.34630 -3.76663 44749 ft 503 kts 330°
2026-04-17 10:35 55.40880 -3.82131 44819 ft 501 kts 330°
2026-04-17 10:35 55.47102 -3.87570 44890 ft 498 kts 330°
2026-04-17 10:36 55.53302 -3.92987 44918 ft 496 kts 330°
2026-04-17 10:36 55.59474 -3.98380 44930 ft 494 kts 330°
2026-04-17 10:37 55.65617 -4.03747 44917 ft 491 kts 330°
2026-04-17 10:37 55.71728 -4.09085 44918 ft 489 kts 330°
2026-04-17 10:38 55.77809 -4.14400 44900 ft 486 kts 330°
2026-04-17 10:38 55.83862 -4.19689 44866 ft 484 kts 330°
2026-04-17 10:39 55.89888 -4.24956 44829 ft 481 kts 330°
2026-04-17 10:39 55.95884 -4.30199 44766 ft 479 kts 330°
2026-04-17 10:40 56.01849 -4.35418 44700 ft 476 kts 330°
2026-04-17 10:40 56.07789 -4.40618 44615 ft 474 kts 330°
2026-04-17 10:41 56.13699 -4.45795 44525 ft 472 kts 330°
2026-04-17 10:41 56.19586 -4.50954 44428 ft 470 kts 330°
2026-04-17 10:42 56.25448 -4.56097 44328 ft 468 kts 331°
2026-04-17 10:42 56.31289 -4.61225 44213 ft 466 kts 331°
2026-04-17 10:43 56.37097 -4.66329 44086 ft 464 kts 331°
2026-04-17 10:43 56.42904 -4.71438 43967 ft 463 kts 331°
2026-04-17 10:44 56.48687 -4.76530 43859 ft 461 kts 331°
2026-04-17 10:44 56.54450 -4.81612 43711 ft 460 kts 331°
2026-04-17 10:45 56.60161 -4.86653 43601 ft 459 kts 331°
2026-04-17 10:45 56.65896 -4.91721 43449 ft 458 kts 331°
2026-04-17 10:46 56.71616 -4.96783 43311 ft 457 kts 331°
2026-04-17 10:46 56.77363 -5.01875 43214 ft 456 kts 330°
2026-04-17 10:47 56.83024 -5.06894 43091 ft 455 kts 330°
2026-04-17 10:47 56.88716 -5.11947 42984 ft 455 kts 330°
2026-04-17 10:48 56.94401 -5.17000 42871 ft 454 kts 330°
2026-04-17 10:48 57.00071 -5.22047 42745 ft 453 kts 330°
2026-04-17 10:49 57.05736 -5.27098 42644 ft 452 kts 330°
2026-04-17 10:49 57.11396 -5.32152 42557 ft 452 kts 330°
2026-04-17 10:50 57.17053 -5.37210 42475 ft 452 kts 330°
2026-04-17 10:50 57.22700 -5.42270 42366 ft 451 kts 330°
2026-04-17 10:51 57.28346 -5.47337 42293 ft 451 kts 330°
2026-04-17 10:51 57.33994 -5.52413 42209 ft 451 kts 330°
2026-04-17 10:52 57.39634 -5.57491 42125 ft 451 kts 330°
2026-04-17 10:52 57.45274 -5.62577 42052 ft 450 kts 330°
2026-04-17 10:53 57.50906 -5.67665 41977 ft 450 kts 330°
2026-04-17 10:53 57.56536 -5.72760 41928 ft 450 kts 330°
2026-04-17 10:54 57.62163 -5.77859 41858 ft 449 kts 330°
2026-04-17 10:54 57.67779 -5.82954 41789 ft 449 kts 330°
2026-04-17 10:55 57.73397 -5.88057 41732 ft 449 kts 330°
2026-04-17 10:55 57.79011 -5.93164 41684 ft 448 kts 330°
2026-04-17 10:56 57.84618 -5.98273 41628 ft 448 kts 330°
2026-04-17 10:56 57.90221 -6.03386 41566 ft 448 kts 330°
2026-04-17 10:57 57.95820 -6.08501 41519 ft 447 kts 330°
2026-04-17 10:57 58.01416 -6.13621 41477 ft 447 kts 330°
2026-04-17 10:58 58.07009 -6.18745 41441 ft 447 kts 330°
2026-04-17 10:58 58.12598 -6.23875 41410 ft 446 kts 331°
2026-04-17 10:59 58.18184 -6.29009 41357 ft 446 kts 330°
2026-04-17 10:59 58.23767 -6.34150 41327 ft 446 kts 331°
2026-04-17 11:00 58.29355 -6.39302 41295 ft 446 kts 330°
2026-04-17 11:00 58.34940 -6.44461 41287 ft 446 kts 331°
2026-04-17 11:01 58.40524 -6.49625 41245 ft 446 kts 331°
2026-04-17 11:01 58.46106 -6.54797 41219 ft 446 kts 331°
2026-04-17 11:02 58.51679 -6.59967 41185 ft 445 kts 331°
2026-04-17 11:02 58.57213 -6.65109 41158 ft 445 kts 331°
2026-04-17 11:03 58.62779 -6.70287 41136 ft 445 kts 331°
2026-04-17 11:03 58.68341 -6.75471 41111 ft 444 kts 331°
2026-04-17 11:04 58.73900 -6.80659 41080 ft 444 kts 331°
2026-04-17 11:04 58.79456 -6.85852 41049 ft 444 kts 331°
2026-04-17 11:05 58.85006 -6.91048 41035 ft 443 kts 331°
2026-04-17 11:05 58.90553 -6.96251 41013 ft 443 kts 331°
2026-04-17 11:06 58.96093 -7.01455 41002 ft 442 kts 331°
2026-04-17 11:06 59.01632 -7.06664 40978 ft 442 kts 331°
2026-04-17 11:07 59.07166 -7.11877 40960 ft 442 kts 331°
2026-04-17 11:07 59.12696 -7.17093 40940 ft 442 kts 331°
2026-04-17 11:08 59.18223 -7.22314 40910 ft 441 kts 331°
2026-04-17 11:08 59.23745 -7.27537 40897 ft 441 kts 331°
2026-04-17 11:09 59.29262 -7.32764 40878 ft 440 kts 331°
2026-04-17 11:09 59.34774 -7.37994 40864 ft 440 kts 331°
2026-04-17 11:10 59.43035 -7.45848 40845 ft 440 kts 331°
2026-04-17 11:10 59.48537 -7.51087 40831 ft 439 kts 331°
2026-04-17 11:11 59.53999 -7.56292 40805 ft 439 kts 331°
2026-04-17 11:11 59.59491 -7.61529 40783 ft 438 kts 331°
2026-04-17 11:12 59.64982 -7.66768 40760 ft 438 kts 331°
2026-04-17 11:12 59.70469 -7.72008 40756 ft 438 kts 332°
2026-04-17 11:13 59.75951 -7.77247 40736 ft 437 kts 332°
2026-04-17 11:13 59.81429 -7.82487 40728 ft 437 kts 332°
2026-04-17 11:14 59.86905 -7.87728 40700 ft 437 kts 332°
2026-04-17 11:14 59.92376 -7.92969 40684 ft 436 kts 332°
2026-04-17 11:15 59.96960 -7.97365 40688 ft 436 kts 332°
2026-04-17 11:15 60.03311 -8.03459 40677 ft 436 kts 332°
2026-04-17 11:16 60.07889 -8.07855 40661 ft 435 kts 332°
2026-04-17 11:16 60.13351 -8.13103 40646 ft 435 kts 332°
2026-04-17 11:17 60.18811 -8.18351 40641 ft 435 kts 332°
2026-04-17 11:17 60.24275 -8.23608 40650 ft 435 kts 332°
2026-04-17 11:18 60.29701 -8.28832 40640 ft 435 kts 332°
2026-04-17 11:18 60.35158 -8.34091 40614 ft 434 kts 332°
2026-04-17 11:19 60.40607 -8.39348 40592 ft 434 kts 332°
2026-04-17 11:19 60.46052 -8.44603 40579 ft 433 kts 332°
2026-04-17 11:20 60.51493 -8.49860 40575 ft 433 kts 332°
2026-04-17 11:20 60.56926 -8.55116 40561 ft 433 kts 332°
2026-04-17 11:21 60.62362 -8.60382 40543 ft 432 kts 332°
2026-04-17 11:21 60.67788 -8.65643 40521 ft 432 kts 332°
2026-04-17 11:22 60.73209 -8.70903 40502 ft 431 kts 332°
2026-04-17 11:22 60.78623 -8.76163 40479 ft 431 kts 332°
2026-04-17 11:23 60.84035 -8.81427 40451 ft 430 kts 332°
2026-04-17 11:23 60.89444 -8.86692 40433 ft 430 kts 332°
2026-04-17 11:24 60.94848 -8.91959 40411 ft 429 kts 332°
2026-04-17 11:24 61.00243 -8.97222 40392 ft 429 kts 332°
2026-04-17 11:25 61.05635 -9.02489 40386 ft 428 kts 333°
2026-04-17 11:25 61.11017 -9.07752 40354 ft 428 kts 333°
2026-04-17 11:26 61.16364 -9.12987 40320 ft 428 kts 333°
2026-04-17 11:26 61.21740 -9.18255 40285 ft 427 kts 333°
2026-04-17 11:27 61.27108 -9.23521 40262 ft 427 kts 333°
2026-04-17 11:27 61.32474 -9.28792 40214 ft 426 kts 333°
2026-04-17 11:28 61.37836 -9.34065 40193 ft 426 kts 333°
2026-04-17 11:28 61.43190 -9.39336 40168 ft 425 kts 333°
2026-04-17 11:29 61.48542 -9.44611 40128 ft 425 kts 333°
2026-04-17 11:29 61.53890 -9.49888 40106 ft 425 kts 333°
2026-04-17 11:30 61.59234 -9.55167 40081 ft 424 kts 333°
2026-04-17 11:30 61.64571 -9.60445 40050 ft 424 kts 333°
2026-04-17 11:31 61.69901 -9.65723 40010 ft 423 kts 333°
2026-04-17 11:31 61.75230 -9.71006 39975 ft 423 kts 333°
2026-04-17 11:32 61.80556 -9.76292 39950 ft 423 kts 333°
2026-04-17 11:32 61.85872 -9.81574 39922 ft 422 kts 333°
2026-04-17 11:33 61.91189 -9.86864 39890 ft 422 kts 333°
2026-04-17 11:33 61.96463 -9.92117 39866 ft 421 kts 333°
2026-04-17 11:34 62.01801 -9.97442 39834 ft 421 kts 333°
2026-04-17 11:34 62.07102 -10.02736 39809 ft 421 kts 333°
2026-04-17 11:35 62.12407 -10.08044 39806 ft 421 kts 333°
2026-04-17 11:35 62.17675 -10.13321 39799 ft 421 kts 333°
2026-04-17 11:36 62.22975 -10.18637 39764 ft 420 kts 333°
2026-04-17 11:36 62.28267 -10.23953 39764 ft 420 kts 333°
2026-04-17 11:37 62.33557 -10.29274 39740 ft 419 kts 333°
2026-04-17 11:37 62.38841 -10.34595 39720 ft 419 kts 333°
2026-04-17 11:38 62.44118 -10.39912 39692 ft 418 kts 333°
2026-04-17 11:38 62.49394 -10.45234 39676 ft 418 kts 333°
2026-04-17 11:39 62.54667 -10.50560 39652 ft 418 kts 333°
2026-04-17 11:39 62.59932 -10.55883 39627 ft 417 kts 333°
2026-04-17 11:40 62.65194 -10.61210 39610 ft 417 kts 333°
2026-04-17 11:40 62.70451 -10.66539 39577 ft 417 kts 333°
2026-04-17 11:41 62.75704 -10.71873 39580 ft 416 kts 333°
2026-04-17 11:41 62.80956 -10.77213 39563 ft 416 kts 333°
2026-04-17 11:42 62.86203 -10.82556 39550 ft 416 kts 333°
2026-04-17 11:42 62.91443 -10.87899 39531 ft 415 kts 333°
2026-04-17 11:43 62.96685 -10.93252 39508 ft 415 kts 333°
2026-04-17 11:43 63.01920 -10.98606 39492 ft 415 kts 333°
2026-04-17 11:44 63.07151 -11.03963 39473 ft 414 kts 333°
2026-04-17 11:44 63.12376 -11.09321 39450 ft 414 kts 333°
2026-04-17 11:45 63.17564 -11.14649 39425 ft 414 kts 333°
2026-04-17 11:45 63.22782 -11.20016 39417 ft 413 kts 333°
2026-04-17 11:46 63.27996 -11.25387 39387 ft 413 kts 333°
2026-04-17 11:46 63.33207 -11.30761 39382 ft 413 kts 333°
2026-04-17 11:47 63.38412 -11.36137 39351 ft 412 kts 333°
2026-04-17 11:47 63.43614 -11.41519 39339 ft 412 kts 333°
2026-04-17 11:48 63.48813 -11.46904 39301 ft 412 kts 333°
2026-04-17 11:48 63.54007 -11.52293 39291 ft 411 kts 333°
2026-04-17 11:49 63.59197 -11.57685 39267 ft 411 kts 333°
2026-04-17 11:49 63.64384 -11.63082 39242 ft 410 kts 333°
2026-04-17 11:50 63.69563 -11.68479 39239 ft 410 kts 333°
2026-04-17 11:50 63.74742 -11.73884 39201 ft 410 kts 333°
2026-04-17 11:51 63.79915 -11.79291 39181 ft 409 kts 333°
2026-04-17 11:51 63.85049 -11.84665 39158 ft 409 kts 333°
2026-04-17 11:52 63.90215 -11.90080 39139 ft 409 kts 333°
2026-04-17 11:52 63.95379 -11.95502 39115 ft 409 kts 333°
2026-04-17 11:53 64.00536 -12.00925 39094 ft 408 kts 333°
2026-04-17 11:53 64.05692 -12.06354 39067 ft 408 kts 333°
2026-04-17 11:54 64.10846 -12.11790 39041 ft 408 kts 333°
2026-04-17 11:54 64.15996 -12.17231 39020 ft 407 kts 333°
2026-04-17 11:55 64.21142 -12.22674 38986 ft 407 kts 333°
2026-04-17 11:55 64.26283 -12.28122 38977 ft 407 kts 333°
2026-04-17 11:56 64.31419 -12.33573 38944 ft 406 kts 333°
2026-04-17 11:56 64.36556 -12.39033 38911 ft 406 kts 333°
2026-04-17 11:57 64.41687 -12.44496 38894 ft 406 kts 333°
2026-04-17 11:57 64.46815 -12.49963 38894 ft 406 kts 333°
2026-04-17 11:58 64.51945 -12.55442 38871 ft 405 kts 333°
2026-04-17 11:58 64.57066 -12.60920 38853 ft 405 kts 333°
2026-04-17 11:59 64.62185 -12.66402 38830 ft 405 kts 333°
2026-04-17 11:59 64.67301 -12.71887 38807 ft 405 kts 333°
2026-04-17 12:00 64.72416 -12.77377 38785 ft 404 kts 333°
2026-04-17 12:00 64.77526 -12.82870 38781 ft 404 kts 333°
2026-04-17 12:01 64.82634 -12.88368 38766 ft 404 kts 333°
2026-04-17 12:01 64.86872 -12.92937 38751 ft 403 kts 333°
2026-04-17 12:02 64.91974 -12.98445 38721 ft 403 kts 333°
2026-04-17 12:02 64.97071 -13.03956 38698 ft 403 kts 333°
2026-04-17 12:03 65.02164 -13.09472 38678 ft 403 kts 333°
2026-04-17 12:03 65.07255 -13.14996 38677 ft 402 kts 333°
2026-04-17 12:04 65.12340 -13.20523 38654 ft 402 kts 333°
2026-04-17 12:04 65.17424 -13.26057 38639 ft 402 kts 333°
2026-04-17 12:05 65.22506 -13.31598 38623 ft 402 kts 333°
2026-04-17 12:05 65.27584 -13.37145 38597 ft 401 kts 333°
2026-04-17 12:06 65.32626 -13.42661 38594 ft 401 kts 333°
2026-04-17 12:06 65.37700 -13.48222 38599 ft 401 kts 333°
2026-04-17 12:07 65.42769 -13.53786 38588 ft 401 kts 333°
2026-04-17 12:07 65.47837 -13.59359 38576 ft 400 kts 333°
2026-04-17 12:08 65.52898 -13.64935 38556 ft 400 kts 333°
2026-04-17 12:08 65.57954 -13.70521 38533 ft 399 kts 333°
2026-04-17 12:09 65.63004 -13.76111 38535 ft 399 kts 333°
2026-04-17 12:09 65.68054 -13.81711 38526 ft 399 kts 333°
2026-04-17 12:10 65.73104 -13.87320 38502 ft 399 kts 333°
2026-04-17 12:10 65.78148 -13.92932 38488 ft 399 kts 333°
2026-04-17 12:11 65.83189 -13.98552 38475 ft 398 kts 333°
2026-04-17 12:12 65.90748 -14.06996 38457 ft 398 kts 333°
2026-04-17 12:12 65.95785 -14.12635 38446 ft 398 kts 333°
2026-04-17 12:13 66.00822 -14.18285 38409 ft 398 kts 333°
2026-04-17 12:13 66.05855 -14.23939 38408 ft 398 kts 333°
2026-04-17 12:14 66.10887 -14.29603 38385 ft 397 kts 333°
2026-04-17 12:14 66.15916 -14.35273 38368 ft 397 kts 333°
2026-04-17 12:15 66.20948 -14.40957 38359 ft 397 kts 333°
2026-04-17 12:15 66.25974 -14.46644 38360 ft 397 kts 333°
2026-04-17 12:16 66.30999 -14.52340 38350 ft 397 kts 333°
2026-04-17 12:16 66.36019 -14.58042 38339 ft 397 kts 333°
2026-04-17 12:17 66.41041 -14.63757 38322 ft 397 kts 333°
2026-04-17 12:17 66.46059 -14.69477 38311 ft 396 kts 333°
2026-04-17 12:18 66.51042 -14.75169 38294 ft 396 kts 333°
2026-04-17 12:18 66.56093 -14.80949 38291 ft 397 kts 334°
2026-04-17 12:19 66.61115 -14.86708 38273 ft 396 kts 334°
2026-04-17 12:19 66.66095 -14.92428 38273 ft 396 kts 334°
2026-04-17 12:20 66.71109 -14.98197 38249 ft 396 kts 334°
2026-04-17 12:20 66.76122 -15.03974 38240 ft 396 kts 334°
2026-04-17 12:21 66.81140 -15.09763 38263 ft 396 kts 334°
2026-04-17 12:21 66.86150 -15.15553 38271 ft 396 kts 334°
2026-04-17 12:22 66.91161 -15.21352 38250 ft 396 kts 334°
2026-04-17 12:22 66.96171 -15.27161 38233 ft 395 kts 334°
2026-04-17 12:23 67.01181 -15.32980 38222 ft 395 kts 334°
2026-04-17 12:23 67.06191 -15.38809 38207 ft 395 kts 334°
2026-04-17 12:24 67.11198 -15.44647 38199 ft 395 kts 334°
2026-04-17 12:24 67.16206 -15.50497 38186 ft 395 kts 334°
2026-04-17 12:25 67.21216 -15.56362 38169 ft 395 kts 334°
2026-04-17 12:25 67.26221 -15.62233 38150 ft 395 kts 334°
2026-04-17 12:26 67.31194 -15.68077 38141 ft 395 kts 334°
2026-04-17 12:26 67.36198 -15.73970 38145 ft 395 kts 334°
2026-04-17 12:27 67.41197 -15.79868 38135 ft 395 kts 334°
2026-04-17 12:27 67.46201 -15.85785 38145 ft 395 kts 334°
2026-04-17 12:28 67.51202 -15.91711 38154 ft 394 kts 334°
2026-04-17 12:28 67.56197 -15.97642 38126 ft 394 kts 334°
2026-04-17 12:29 67.61195 -16.03589 38124 ft 394 kts 334°
2026-04-17 12:29 67.66190 -16.09545 38116 ft 394 kts 334°
2026-04-17 12:30 67.71182 -16.15511 38106 ft 394 kts 334°
2026-04-17 12:30 67.76176 -16.21493 38073 ft 395 kts 334°
2026-04-17 12:31 67.81176 -16.27496 38047 ft 395 kts 334°
2026-04-17 12:31 67.86175 -16.33508 38060 ft 394 kts 334°
2026-04-17 12:32 67.91167 -16.39526 38022 ft 394 kts 334°
2026-04-17 12:32 67.96163 -16.45561 38010 ft 394 kts 334°
2026-04-17 12:33 68.01158 -16.51606 38012 ft 394 kts 334°
2026-04-17 12:33 68.06153 -16.57666 37976 ft 395 kts 334°
2026-04-17 12:34 68.11162 -16.63757 37963 ft 395 kts 334°
2026-04-17 12:34 68.16165 -16.69853 37974 ft 395 kts 334°
2026-04-17 12:35 68.21167 -16.75961 37973 ft 395 kts 334°
2026-04-17 12:35 68.26172 -16.82087 37968 ft 395 kts 334°
2026-04-17 12:37 68.46172 -17.06703 37936 ft 395 kts 335°
2026-04-17 12:38 68.51184 -17.12907 37931 ft 396 kts 335°
2026-04-17 12:38 68.56197 -17.19126 37930 ft 396 kts 335°
2026-04-17 12:39 68.61209 -17.25358 37935 ft 396 kts 335°
2026-04-17 12:39 68.66221 -17.31605 37929 ft 396 kts 335°
2026-04-17 12:40 68.71246 -17.37884 37917 ft 397 kts 335°
2026-04-17 12:40 68.76273 -17.44180 37951 ft 397 kts 335°
2026-04-17 12:41 68.81297 -17.50485 37966 ft 397 kts 335°
2026-04-17 12:41 68.86322 -17.56801 37964 ft 397 kts 335°
2026-04-17 12:42 68.91318 -17.63092 37961 ft 397 kts 335°
2026-04-17 12:42 68.96346 -17.69439 37962 ft 397 kts 335°
2026-04-17 12:43 69.01373 -17.75798 37962 ft 397 kts 335°
2026-04-17 12:43 69.06401 -17.82171 37977 ft 397 kts 335°
2026-04-17 12:44 69.11427 -17.88559 37972 ft 397 kts 335°
2026-04-17 12:44 69.16457 -17.94968 37972 ft 397 kts 335°
2026-04-17 12:45 69.21484 -18.01388 37973 ft 397 kts 335°
2026-04-17 12:45 69.26512 -18.07826 37972 ft 397 kts 335°
2026-04-17 12:46 69.31542 -18.14282 37970 ft 397 kts 335°
2026-04-17 12:46 69.36568 -18.20751 37971 ft 397 kts 335°
2026-04-17 12:47 69.41597 -18.27237 37978 ft 397 kts 335°
2026-04-17 12:47 69.46620 -18.33733 37977 ft 397 kts 335°
2026-04-17 12:48 69.51644 -18.40245 37991 ft 397 kts 335°
2026-04-17 12:48 69.56671 -18.46777 37994 ft 397 kts 335°
2026-04-17 12:49 69.61698 -18.53327 37961 ft 397 kts 336°
2026-04-17 12:49 69.66730 -18.59899 37979 ft 397 kts 336°
2026-04-17 12:50 69.71753 -18.66476 37985 ft 397 kts 336°
2026-04-17 12:50 69.76782 -18.73076 37989 ft 397 kts 336°
2026-04-17 12:51 69.81810 -18.79692 37988 ft 397 kts 336°
2026-04-17 12:51 69.85990 -18.85203 37988 ft 397 kts 336°
2026-04-17 12:52 69.91016 -18.91848 37974 ft 397 kts 336°
2026-04-17 12:52 69.96048 -18.98519 37965 ft 397 kts 336°
2026-04-17 12:53 70.01077 -19.05200 37987 ft 397 kts 336°
2026-04-17 12:53 70.06105 -19.11898 37983 ft 397 kts 336°
2026-04-17 12:54 70.11131 -19.18610 37982 ft 397 kts 336°
2026-04-17 12:54 70.16159 -19.25341 37998 ft 397 kts 336°
2026-04-17 12:55 70.21184 -19.32086 38000 ft 397 kts 336°
2026-04-17 12:55 70.26211 -19.38850 38018 ft 397 kts 336°
2026-04-17 12:56 70.31237 -19.45631 38018 ft 397 kts 336°
2026-04-17 12:56 70.36264 -19.52430 38028 ft 397 kts 336°
2026-04-17 12:57 70.41290 -19.59245 38033 ft 397 kts 336°
2026-04-17 12:57 70.46318 -19.66081 38037 ft 397 kts 336°
2026-04-17 12:58 70.51342 -19.72929 38040 ft 397 kts 336°
2026-04-17 12:58 70.56377 -19.79811 38025 ft 398 kts 336°
2026-04-17 12:59 70.61411 -19.86709 38043 ft 397 kts 336°
2026-04-17 12:59 70.66440 -19.93618 38059 ft 397 kts 336°
2026-04-17 13:00 70.71471 -20.00548 38052 ft 398 kts 336°
2026-04-17 13:00 70.76506 -20.07500 38062 ft 398 kts 336°
2026-04-17 13:01 70.81540 -20.14467 38063 ft 398 kts 336°
2026-04-17 13:01 70.86543 -20.21412 38056 ft 398 kts 337°
2026-04-17 13:02 70.91580 -20.28419 38082 ft 398 kts 337°
2026-04-17 13:02 70.96617 -20.35444 38091 ft 398 kts 337°
2026-04-17 13:03 71.01650 -20.42476 38164 ft 397 kts 337°
2026-04-17 13:03 71.06677 -20.49519 38162 ft 397 kts 337°
2026-04-17 13:04 71.11708 -20.56584 38160 ft 397 kts 337°
2026-04-17 13:04 71.16739 -20.63670 38159 ft 398 kts 337°
2026-04-17 13:05 71.21775 -20.70782 38166 ft 398 kts 337°
2026-04-17 13:05 71.26808 -20.77909 38184 ft 398 kts 337°
2026-04-17 13:06 71.31841 -20.85058 38185 ft 398 kts 337°
2026-04-17 13:06 71.36875 -20.92227 38194 ft 398 kts 337°
2026-04-17 13:07 71.41910 -20.99420 38212 ft 398 kts 337°
2026-04-17 13:07 71.46946 -21.06634 38190 ft 398 kts 336°
2026-04-17 13:08 71.51985 -21.13873 38199 ft 398 kts 336°
2026-04-17 13:08 71.57021 -21.21129 38221 ft 398 kts 336°
2026-04-17 13:09 71.62058 -21.28406 38221 ft 398 kts 336°
2026-04-17 13:09 71.67061 -21.35656 38235 ft 398 kts 336°
2026-04-17 13:10 71.72100 -21.42978 38239 ft 398 kts 336°
2026-04-17 13:10 71.77135 -21.50315 38243 ft 398 kts 336°
2026-04-17 13:11 71.82175 -21.57680 38235 ft 398 kts 336°
2026-04-17 13:11 71.87215 -21.65068 38269 ft 398 kts 336°
2026-04-17 13:12 71.92251 -21.72471 38283 ft 398 kts 336°
2026-04-17 13:12 71.99807 -21.83620 38288 ft 398 kts 336°
2026-04-17 13:13 72.04844 -21.91080 38309 ft 398 kts 336°
2026-04-17 13:13 72.09877 -21.98555 38308 ft 398 kts 336°
2026-04-17 13:14 72.14908 -22.06050 38345 ft 397 kts 336°
2026-04-17 13:14 72.19935 -22.13563 38342 ft 398 kts 336°
2026-04-17 13:15 72.24964 -22.21106 38349 ft 398 kts 336°
2026-04-17 13:15 72.29994 -22.28676 38370 ft 398 kts 336°
2026-04-17 13:16 72.35024 -22.36273 38377 ft 398 kts 336°
2026-04-17 13:16 72.40052 -22.43892 38381 ft 398 kts 336°
2026-04-17 13:17 72.45082 -22.51538 38394 ft 398 kts 336°
2026-04-17 13:17 72.50112 -22.59208 38404 ft 398 kts 336°
2026-04-17 13:18 72.55110 -22.66856 38412 ft 398 kts 336°
2026-04-17 13:18 72.60176 -22.74633 38428 ft 398 kts 336°
2026-04-17 13:19 72.65173 -22.82330 38452 ft 398 kts 336°
2026-04-17 13:19 72.70202 -22.90101 38465 ft 398 kts 336°
2026-04-17 13:20 72.75242 -22.97915 38401 ft 399 kts 336°
2026-04-17 13:20 72.80290 -23.05767 38418 ft 399 kts 336°
2026-04-17 13:21 72.85333 -23.13638 38450 ft 399 kts 336°
2026-04-17 13:21 72.90374 -23.21534 38456 ft 399 kts 336°
2026-04-17 13:22 72.95423 -23.29472 38476 ft 399 kts 336°
2026-04-17 13:22 73.00466 -23.37423 38473 ft 399 kts 336°
2026-04-17 13:23 73.05515 -23.45407 38452 ft 400 kts 336°
2026-04-17 13:23 73.10571 -23.53427 38447 ft 401 kts 336°
2026-04-17 13:24 73.15620 -23.61460 38489 ft 399 kts 336°
2026-04-17 13:24 73.20672 -23.69521 38453 ft 400 kts 336°
2026-04-17 13:25 73.25731 -23.77622 38479 ft 401 kts 336°
2026-04-17 13:25 73.30783 -23.85735 38525 ft 400 kts 336°
2026-04-17 13:26 73.35835 -23.93873 38516 ft 400 kts 336°
2026-04-17 13:26 73.40893 -24.02050 38524 ft 400 kts 336°
2026-04-17 13:27 73.45949 -24.10252 38535 ft 400 kts 336°
2026-04-17 13:27 73.51001 -24.18479 38529 ft 400 kts 336°
2026-04-17 13:28 73.56057 -24.26741 38534 ft 400 kts 336°
2026-04-17 13:28 73.61111 -24.35029 38541 ft 400 kts 336°
2026-04-17 13:29 73.66164 -24.43347 38572 ft 401 kts 336°
2026-04-17 13:29 73.71229 -24.51709 38562 ft 402 kts 336°
2026-04-17 13:30 73.76302 -24.60116 38582 ft 402 kts 336°
2026-04-17 13:30 73.81371 -24.68541 38623 ft 402 kts 336°
2026-04-17 13:31 73.86439 -24.76993 38628 ft 402 kts 336°
2026-04-17 13:31 73.91511 -24.85480 38641 ft 402 kts 336°
2026-04-17 13:32 73.96582 -24.93996 38661 ft 402 kts 336°
2026-04-17 13:32 74.01622 -25.02485 38660 ft 402 kts 335°
2026-04-17 13:33 74.06697 -25.11066 38658 ft 402 kts 335°
2026-04-17 13:33 74.11777 -25.19667 38637 ft 403 kts 335°
2026-04-17 13:34 74.16858 -25.28299 38667 ft 402 kts 335°
2026-04-17 13:34 74.21930 -25.36946 38683 ft 402 kts 335°
2026-04-17 13:35 74.27011 -25.45639 38684 ft 403 kts 335°
2026-04-17 13:35 74.32091 -25.54359 38694 ft 402 kts 335°
2026-04-17 13:36 74.37158 -25.63085 38747 ft 401 kts 335°
2026-04-17 13:36 74.42223 -25.71838 38751 ft 402 kts 335°
2026-04-17 13:37 74.46437 -25.79145 38743 ft 402 kts 335°
2026-04-17 13:37 74.51508 -25.87967 38760 ft 402 kts 335°
2026-04-17 13:38 74.56575 -25.96815 38769 ft 402 kts 335°
2026-04-17 13:38 74.61647 -26.05705 38776 ft 402 kts 335°
2026-04-17 13:39 74.66723 -26.14632 38782 ft 402 kts 335°
2026-04-17 13:39 74.71798 -26.23589 38784 ft 403 kts 335°
2026-04-17 13:40 74.76877 -26.32587 38789 ft 403 kts 335°
2026-04-17 13:40 74.81950 -26.41607 38791 ft 403 kts 335°
2026-04-17 13:41 74.87030 -26.50670 38800 ft 403 kts 335°
2026-04-17 13:41 74.92104 -26.59758 38808 ft 403 kts 335°
2026-04-17 13:42 74.97180 -26.68881 38814 ft 403 kts 335°
2026-04-17 13:42 75.02283 -26.78083 38721 ft 406 kts 335°
2026-04-17 13:43 75.07396 -26.87338 38771 ft 405 kts 335°
2026-04-17 13:43 75.12457 -26.96532 38792 ft 404 kts 335°
2026-04-17 13:44 75.17559 -27.05840 38772 ft 405 kts 335°
2026-04-17 13:44 75.22660 -27.15179 38792 ft 405 kts 335°
2026-04-17 13:45 75.27761 -27.24549 38798 ft 405 kts 335°
2026-04-17 13:45 75.32862 -27.33949 38814 ft 404 kts 334°
2026-04-17 13:46 75.37958 -27.43372 38825 ft 404 kts 334°
2026-04-17 13:46 75.43051 -27.52824 38822 ft 404 kts 334°
2026-04-17 13:47 75.48148 -27.62319 38827 ft 404 kts 334°
2026-04-17 13:47 75.53244 -27.71847 38839 ft 404 kts 334°
2026-04-17 13:48 75.58344 -27.81442 38779 ft 406 kts 334°
2026-04-17 13:48 75.63461 -27.91111 38805 ft 406 kts 334°
2026-04-17 13:49 75.68553 -28.00766 38870 ft 404 kts 334°
2026-04-17 13:49 75.73641 -28.10451 38831 ft 405 kts 334°
2026-04-17 13:50 75.78740 -28.20197 38850 ft 405 kts 334°
2026-04-17 13:50 75.83829 -28.29959 38869 ft 404 kts 334°
2026-04-17 13:51 75.88916 -28.39758 38863 ft 405 kts 334°
2026-04-17 13:51 75.94011 -28.49609 38869 ft 404 kts 334°
2026-04-17 13:52 75.99083 -28.59450 38961 ft 401 kts 333°
2026-04-17 13:52 76.04132 -28.69283 38951 ft 402 kts 333°
2026-04-17 13:53 76.09169 -28.79133 38937 ft 403 kts 333°
2026-04-17 13:53 76.14230 -28.89071 38962 ft 402 kts 333°
2026-04-17 13:54 76.21819 -29.04044 38960 ft 402 kts 333°
2026-04-17 13:55 76.29407 -29.19106 38999 ft 401 kts 333°
2026-04-17 13:56 76.39498 -29.39270 38996 ft 401 kts 333°
2026-04-17 13:56 76.44544 -29.49414 39003 ft 401 kts 333°
2026-04-17 13:57 76.49585 -29.59589 39008 ft 401 kts 333°
2026-04-17 13:58 76.57152 -29.74939 39012 ft 401 kts 333°
2026-04-17 13:58 76.64714 -29.90374 39014 ft 401 kts 333°
2026-04-17 13:59 76.72274 -30.05899 39025 ft 401 kts 333°
2026-04-17 14:00 76.77312 -30.16296 39024 ft 401 kts 333°
2026-04-17 14:00 76.82354 -30.26749 39019 ft 401 kts 333°
2026-04-17 14:01 76.87393 -30.37237 39024 ft 401 kts 333°
2026-04-17 14:01 76.92430 -30.47764 39040 ft 400 kts 333°
2026-04-17 14:02 76.97480 -30.58364 38987 ft 403 kts 333°
2026-04-17 14:02 77.02547 -30.69042 39009 ft 403 kts 333°
2026-04-17 14:03 77.07602 -30.79740 39047 ft 402 kts 333°
2026-04-17 14:03 77.12623 -30.90411 39032 ft 403 kts 333°
2026-04-17 14:04 77.17686 -31.01216 39030 ft 402 kts 333°
2026-04-17 14:04 77.22740 -31.12051 39052 ft 402 kts 333°
2026-04-17 14:05 77.27797 -31.22938 39037 ft 403 kts 333°
2026-04-17 14:05 77.32881 -31.33933 38980 ft 405 kts 333°
2026-04-17 14:06 77.37967 -31.44982 39029 ft 404 kts 333°
2026-04-17 14:06 77.43039 -31.56044 39030 ft 404 kts 333°
2026-04-17 14:07 77.48119 -31.67167 39009 ft 404 kts 333°
2026-04-17 14:07 77.53196 -31.78331 39021 ft 404 kts 333°
2026-04-17 14:08 77.58274 -31.89540 39025 ft 404 kts 333°
2026-04-17 14:08 77.63351 -32.00795 39018 ft 405 kts 333°
2026-04-17 14:09 77.68436 -32.12115 39022 ft 404 kts 333°
2026-04-17 14:09 77.73515 -32.23474 39029 ft 404 kts 333°
2026-04-17 14:10 77.78587 -32.34868 39022 ft 404 kts 333°
2026-04-17 14:10 77.83668 -32.46333 39020 ft 404 kts 333°
2026-04-17 14:11 77.88747 -32.57845 39022 ft 404 kts 333°
2026-04-17 14:11 77.93823 -32.69403 39045 ft 404 kts 333°
2026-04-17 14:12 77.98894 -32.80997 39066 ft 403 kts 333°
2026-04-17 14:12 78.03924 -32.92551 39049 ft 404 kts 333°
2026-04-17 14:13 78.11565 -33.10206 39059 ft 404 kts 333°
2026-04-17 14:13 78.16631 -33.21975 39058 ft 403 kts 333°
2026-04-17 14:14 78.21696 -33.33799 39073 ft 404 kts 333°
2026-04-17 14:14 78.26729 -33.45602 39082 ft 404 kts 332°
2026-04-17 14:15 78.31797 -33.57541 39080 ft 404 kts 332°
2026-04-17 14:15 78.36863 -33.69530 39082 ft 404 kts 332°
2026-04-17 14:16 78.41929 -33.81578 39076 ft 404 kts 332°
2026-04-17 14:16 78.46991 -33.93670 39076 ft 404 kts 332°
2026-04-17 14:17 78.52055 -34.05825 39071 ft 404 kts 332°
2026-04-17 14:17 78.57122 -34.18048 39062 ft 404 kts 332°
2026-04-17 14:18 78.62185 -34.30314 39081 ft 404 kts 332°
2026-04-17 14:18 78.67248 -34.42641 39048 ft 403 kts 332°
2026-04-17 14:19 78.72299 -34.54994 39070 ft 402 kts 332°
2026-04-17 14:19 78.77352 -34.67410 39055 ft 403 kts 332°
2026-04-17 14:20 78.82405 -34.79888 39046 ft 403 kts 332°
2026-04-17 14:20 78.87456 -34.92422 39055 ft 403 kts 332°
2026-04-17 14:21 78.92508 -35.05019 39052 ft 403 kts 332°
2026-04-17 14:21 78.97555 -35.17666 39095 ft 402 kts 332°
2026-04-17 14:22 79.02593 -35.30345 39098 ft 402 kts 332°
2026-04-17 14:22 79.07632 -35.43093 39094 ft 402 kts 332°
2026-04-17 14:23 79.12678 -35.55917 39096 ft 402 kts 332°
2026-04-17 14:23 79.16864 -35.66605 39098 ft 402 kts 332°
2026-04-17 14:24 79.21904 -35.79530 39084 ft 402 kts 332°
2026-04-17 14:24 79.27763 -35.94640 39105 ft 402 kts 332°
2026-04-17 14:25 79.32792 -36.07678 39147 ft 401 kts 332°
2026-04-17 14:25 79.37002 -36.18645 39129 ft 401 kts 332°
2026-04-17 14:26 79.42030 -36.31804 39115 ft 401 kts 332°
2026-04-17 14:26 79.47058 -36.45030 39129 ft 401 kts 332°
2026-04-17 14:27 79.52082 -36.58312 39122 ft 401 kts 332°
2026-04-17 14:27 79.57106 -36.71664 39120 ft 401 kts 332°
2026-04-17 14:28 79.62131 -36.85082 39136 ft 401 kts 332°
2026-04-17 14:28 79.67122 -36.98476 39120 ft 401 kts 332°
2026-04-17 14:29 79.72155 -37.12045 39122 ft 401 kts 332°
2026-04-17 14:29 79.77176 -37.25651 39130 ft 401 kts 332°
2026-04-17 14:30 79.82204 -37.39347 39125 ft 401 kts 332°
2026-04-17 14:30 79.87231 -37.53113 39125 ft 401 kts 332°
2026-04-17 14:31 79.92253 -37.66934 39131 ft 401 kts 332°
2026-04-17 14:31 79.97274 -37.80829 39133 ft 401 kts 332°
2026-04-17 14:32 80.02293 -37.94794 39132 ft 401 kts 332°
2026-04-17 14:32 80.07315 -38.08843 39125 ft 401 kts 332°
2026-04-17 14:33 80.12300 -38.22861 39129 ft 401 kts 332°
2026-04-17 14:33 80.17317 -38.37050 39128 ft 401 kts 332°
2026-04-17 14:34 80.22337 -38.51324 39131 ft 401 kts 332°
2026-04-17 14:34 80.27355 -38.65669 39132 ft 401 kts 332°
2026-04-17 14:35 80.32404 -38.80185 39142 ft 400 kts 332°
2026-04-17 14:35 80.37380 -38.94568 39141 ft 400 kts 332°
2026-04-17 14:36 80.42404 -39.09172 39124 ft 401 kts 332°
2026-04-17 14:36 80.47420 -39.23837 39117 ft 401 kts 332°
2026-04-17 14:37 80.52436 -39.38582 39118 ft 401 kts 332°
2026-04-17 14:37 80.57453 -39.53412 39116 ft 401 kts 332°
2026-04-17 14:38 80.62468 -39.68322 39090 ft 401 kts 332°
2026-04-17 14:38 80.67480 -39.83307 39153 ft 399 kts 332°
2026-04-17 14:39 80.72466 -39.98289 39163 ft 398 kts 332°
2026-04-17 14:39 80.77457 -40.13379 39121 ft 400 kts 332°
2026-04-17 14:40 80.82455 -40.28575 39136 ft 399 kts 332°
2026-04-17 14:40 80.87447 -40.43842 39137 ft 399 kts 332°
2026-04-17 14:41 80.92436 -40.59189 39134 ft 399 kts 332°
2026-04-17 14:41 80.97426 -40.74630 39140 ft 399 kts 332°
2026-04-17 14:42 81.02411 -40.90146 39187 ft 397 kts 332°
2026-04-17 14:42 81.07342 -41.05579 39201 ft 397 kts 332°
2026-04-17 14:43 81.12311 -41.21221 39174 ft 398 kts 332°
2026-04-17 14:43 81.17281 -41.36960 39196 ft 397 kts 332°
2026-04-17 14:44 81.22248 -41.52782 39198 ft 397 kts 332°
2026-04-17 14:44 81.27219 -41.68710 39211 ft 397 kts 332°
2026-04-17 14:45 81.32183 -41.84715 39219 ft 397 kts 332°
2026-04-17 14:45 81.37160 -42.00861 39126 ft 401 kts 332°
2026-04-17 14:46 81.42191 -42.17296 39043 ft 403 kts 332°
2026-04-17 14:46 81.47211 -42.33778 39126 ft 401 kts 331°
2026-04-17 14:47 81.52221 -42.50328 39104 ft 401 kts 332°
2026-04-17 14:47 81.57242 -42.67026 39108 ft 401 kts 332°
2026-04-17 14:48 81.62251 -42.83807 39113 ft 401 kts 332°
2026-04-17 14:48 81.67248 -43.00657 39186 ft 398 kts 332°
2026-04-17 14:49 81.72188 -43.17407 39342 ft 393 kts 332°
2026-04-17 14:49 81.77108 -43.34182 39296 ft 395 kts 332°
2026-04-17 14:50 81.82051 -43.51140 39283 ft 395 kts 332°
2026-04-17 14:50 81.86981 -43.68148 39334 ft 394 kts 332°
2026-04-17 14:51 81.91878 -43.85146 39313 ft 395 kts 332°
2026-04-17 14:51 81.96814 -44.02384 39309 ft 395 kts 332°
2026-04-17 14:52 82.01744 -44.19713 39345 ft 395 kts 332°
2026-04-17 14:52 82.06679 -44.37169 39353 ft 395 kts 332°
2026-04-17 14:53 82.11659 -44.54906 39321 ft 396 kts 332°
2026-04-17 14:53 82.16571 -44.72511 39374 ft 395 kts 332°
2026-04-17 14:54 82.21507 -44.90317 39362 ft 396 kts 332°
2026-04-17 14:54 82.26456 -45.08289 39363 ft 396 kts 332°
2026-04-17 14:55 82.31399 -45.26359 39364 ft 395 kts 332°
2026-04-17 14:55 82.36334 -45.44519 39358 ft 395 kts 332°
2026-04-17 14:56 82.41275 -45.62822 39388 ft 396 kts 332°
2026-04-17 14:56 82.46212 -45.81233 39393 ft 395 kts 332°
2026-04-17 14:57 82.51148 -45.99764 39384 ft 395 kts 332°
2026-04-17 14:57 82.56083 -46.18417 39411 ft 395 kts 332°
2026-04-17 14:58 82.61014 -46.37184 39410 ft 395 kts 332°
2026-04-17 14:58 82.65948 -46.56093 39407 ft 395 kts 332°
2026-04-17 14:59 82.70875 -46.75102 39417 ft 394 kts 332°
2026-04-17 14:59 82.75800 -46.94227 39440 ft 394 kts 332°
2026-04-17 15:00 82.80709 -47.13432 39476 ft 393 kts 332°
2026-04-17 15:00 82.85617 -47.32767 39489 ft 393 kts 332°
2026-04-17 15:01 82.90529 -47.52262 39508 ft 393 kts 332°
2026-04-17 15:01 82.95361 -47.71572 39510 ft 393 kts 332°
2026-04-17 15:02 83.00227 -47.91156 39506 ft 393 kts 332°
2026-04-17 15:02 83.05094 -48.10888 39511 ft 393 kts 332°
2026-04-17 15:03 83.09938 -48.30666 39503 ft 393 kts 332°
2026-04-17 15:03 83.14774 -48.50557 39533 ft 393 kts 332°
2026-04-17 15:04 83.19589 -48.70506 39546 ft 392 kts 332°
2026-04-17 15:04 83.24347 -48.90362 39536 ft 393 kts 332°
2026-04-17 15:05 83.29284 -49.11122 39539 ft 393 kts 332°
2026-04-17 15:05 83.34061 -49.31363 39541 ft 392 kts 332°
2026-04-17 15:06 83.38828 -49.51714 39541 ft 392 kts 332°
2026-04-17 15:06 83.43703 -49.72686 39551 ft 392 kts 332°
2026-04-17 15:07 83.48596 -49.93903 39552 ft 392 kts 332°
2026-04-17 15:07 83.53489 -50.15290 39551 ft 392 kts 332°
2026-04-17 15:08 83.58382 -50.36849 39546 ft 392 kts 332°
2026-04-17 15:08 83.63261 -50.58519 39580 ft 391 kts 332°
2026-04-17 15:09 83.68138 -50.80354 39561 ft 391 kts 332°
2026-04-17 15:09 83.72987 -51.02246 39557 ft 391 kts 332°
2026-04-17 15:10 83.77896 -51.24589 39572 ft 391 kts 332°
2026-04-17 15:11 83.85174 -51.58069 39569 ft 391 kts 332°
2026-04-17 15:11 83.90048 -51.80722 39602 ft 391 kts 332°
2026-04-17 15:12 83.94918 -52.03542 39600 ft 391 kts 332°
2026-04-17 15:12 83.99791 -52.26559 39597 ft 391 kts 332°
2026-04-17 15:13 84.04661 -52.49760 39615 ft 391 kts 332°
2026-04-17 15:13 84.09532 -52.73162 39619 ft 391 kts 332°
2026-04-17 15:14 84.14401 -52.96758 39620 ft 391 kts 332°
2026-04-17 15:14 84.18477 -53.16669 39629 ft 391 kts 332°
2026-04-17 15:15 84.23311 -53.40478 39628 ft 391 kts 332°
2026-04-17 15:15 84.28172 -53.64642 39659 ft 390 kts 332°
2026-04-17 15:16 84.33032 -53.89015 39668 ft 390 kts 332°
2026-04-17 15:16 84.37888 -54.13589 39676 ft 390 kts 332°
2026-04-17 15:17 84.42734 -54.38335 39695 ft 389 kts 332°
2026-04-17 15:17 84.47579 -54.63304 39682 ft 390 kts 332°
2026-04-17 15:18 84.52430 -54.88541 39688 ft 389 kts 332°
2026-04-17 15:18 84.57274 -55.13976 39692 ft 389 kts 332°
2026-04-17 15:19 84.62121 -55.39674 39683 ft 389 kts 332°
2026-04-17 15:19 84.66964 -55.65599 39722 ft 389 kts 332°
2026-04-17 15:20 84.71776 -55.91606 39719 ft 389 kts 332°
2026-04-17 15:20 84.76617 -56.18030 39724 ft 389 kts 332°
2026-04-17 15:21 84.81457 -56.44703 39728 ft 389 kts 332°
2026-04-17 15:21 84.86294 -56.71627 39728 ft 389 kts 332°
2026-04-17 15:22 84.91133 -56.98831 39727 ft 389 kts 332°
2026-04-17 15:22 84.95972 -57.26307 39743 ft 389 kts 332°
2026-04-17 15:23 85.00808 -57.54046 39741 ft 389 kts 332°
2026-04-17 15:23 85.05644 -57.82081 39751 ft 389 kts 332°
2026-04-17 15:24 85.10480 -58.10393 39754 ft 389 kts 332°
2026-04-17 15:24 85.15320 -58.39029 39754 ft 389 kts 332°
2026-04-17 15:25 85.20157 -58.67941 39755 ft 389 kts 332°
2026-04-17 15:25 85.24991 -58.97150 39756 ft 389 kts 332°
2026-04-17 15:26 85.29828 -59.26685 39762 ft 389 kts 332°
2026-04-17 15:26 85.34660 -59.56514 39770 ft 389 kts 332°
2026-04-17 15:27 85.39490 -59.86658 39771 ft 389 kts 332°
2026-04-17 15:27 85.44322 -60.17156 39792 ft 389 kts 332°
2026-04-17 15:28 85.49145 -60.47948 39814 ft 388 kts 332°
2026-04-17 15:28 85.53965 -60.79072 39800 ft 388 kts 332°
2026-04-17 15:29 85.58756 -61.10367 39800 ft 388 kts 332°
2026-04-17 15:29 85.63578 -61.42222 39806 ft 388 kts 332°
2026-04-17 15:30 85.68395 -61.74418 39814 ft 388 kts 332°
2026-04-17 15:30 85.73207 -62.06952 39815 ft 388 kts 332°
2026-04-17 15:31 85.78022 -62.39891 39813 ft 388 kts 332°
2026-04-17 15:31 85.82832 -62.73188 39823 ft 388 kts 332°
2026-04-17 15:32 85.87641 -63.06888 39837 ft 388 kts 332°
2026-04-17 15:32 85.92453 -63.41016 39842 ft 388 kts 332°
2026-04-17 15:33 85.97262 -63.75544 39846 ft 388 kts 332°
2026-04-17 15:33 86.02073 -64.10497 39847 ft 388 kts 332°
2026-04-17 15:34 86.06880 -64.45852 39842 ft 388 kts 332°
2026-04-17 15:34 86.11687 -64.81638 39852 ft 388 kts 332°
2026-04-17 15:35 86.16494 -65.17880 39851 ft 387 kts 332°
2026-04-17 15:35 86.21270 -65.54355 39852 ft 387 kts 332°
2026-04-17 15:36 86.26077 -65.91537 39853 ft 387 kts 332°
2026-04-17 15:36 86.30879 -66.29197 39859 ft 388 kts 332°
2026-04-17 15:37 86.35690 -66.67439 39861 ft 388 kts 332°
2026-04-17 15:37 86.40492 -67.06129 39869 ft 387 kts 332°
2026-04-17 15:38 86.45297 -67.45395 39866 ft 387 kts 332°
2026-04-17 15:38 86.50099 -67.85191 39865 ft 388 kts 332°
2026-04-17 15:39 86.54904 -68.25581 39870 ft 387 kts 332°
2026-04-17 15:39 86.59705 -68.66526 39876 ft 387 kts 332°
2026-04-17 15:40 86.64505 -69.08070 39882 ft 387 kts 332°
2026-04-17 15:40 86.69303 -69.50225 39880 ft 388 kts 332°
2026-04-17 15:41 86.74105 -69.93062 39894 ft 388 kts 332°
2026-04-17 15:41 86.78905 -70.36539 39893 ft 387 kts 332°
2026-04-17 15:42 86.83702 -70.80671 39904 ft 387 kts 332°
2026-04-17 15:42 86.88496 -71.25479 39906 ft 387 kts 332°
2026-04-17 15:43 86.93290 -71.71003 39906 ft 387 kts 332°
2026-04-17 15:43 86.98082 -72.17257 39902 ft 387 kts 332°
2026-04-17 15:44 87.02875 -72.64278 39906 ft 387 kts 332°
2026-04-17 15:44 87.07666 -73.12063 39909 ft 387 kts 332°
2026-04-17 15:45 87.12425 -73.60330 39915 ft 387 kts 332°
2026-04-17 15:45 87.17215 -74.09746 39915 ft 387 kts 332°
2026-04-17 15:46 87.22008 -74.60080 39922 ft 387 kts 333°
2026-04-17 15:46 87.26801 -75.11305 39923 ft 387 kts 332°
2026-04-17 15:47 87.31586 -75.63384 39928 ft 387 kts 332°
2026-04-17 15:47 87.36374 -76.16460 39920 ft 387 kts 332°
2026-04-17 15:48 87.41163 -76.70565 39926 ft 387 kts 332°
2026-04-17 15:48 87.45945 -77.25632 39937 ft 387 kts 332°
2026-04-17 15:49 87.50730 -77.81818 39931 ft 387 kts 332°
2026-04-17 15:49 87.55517 -78.39154 39934 ft 387 kts 332°
2026-04-17 15:50 87.60297 -78.97575 39938 ft 387 kts 332°
2026-04-17 15:50 87.65081 -79.57248 39939 ft 387 kts 332°
2026-04-17 15:51 87.69860 -80.18131 39948 ft 386 kts 332°
2026-04-17 15:51 87.74630 -80.80202 39967 ft 386 kts 332°
2026-04-17 15:52 87.79399 -81.43631 39948 ft 386 kts 332°
2026-04-17 15:52 87.84141 -82.08131 39950 ft 386 kts 332°
2026-04-17 15:53 87.88910 -82.74462 39957 ft 386 kts 332°
2026-04-17 15:53 87.93680 -83.42396 39952 ft 386 kts 332°
2026-04-17 15:54 87.98452 -84.11975 39958 ft 386 kts 332°
2026-04-17 15:54 88.03216 -84.83144 39968 ft 386 kts 332°
2026-04-17 15:55 88.07982 -85.56157 39967 ft 386 kts 332°
2026-04-17 15:55 88.12743 -86.30920 39985 ft 385 kts 332°
2026-04-17 15:56 88.17498 -87.07526 39983 ft 385 kts 332°
2026-04-17 15:56 88.22257 -87.86242 39972 ft 386 kts 332°
2026-04-17 15:57 88.27013 -88.67092 39983 ft 385 kts 332°
2026-04-17 15:57 88.31766 -89.50184 39989 ft 385 kts 332°
2026-04-17 15:58 88.36518 -90.35750 39994 ft 385 kts 332°
2026-04-17 15:58 88.41273 -91.23945 39997 ft 386 kts 332°
2026-04-17 15:59 88.45995 -92.14249 40002 ft 385 kts 332°
2026-04-17 15:59 88.50746 -93.07975 40000 ft 385 kts 332°
2026-04-17 16:00 88.55495 -94.04778 40001 ft 385 kts 332°
2026-04-17 16:00 88.60247 -95.04954 39991 ft 386 kts 332°
2026-04-17 16:01 88.64998 -96.08642 40003 ft 385 kts 332°
2026-04-17 16:01 88.69746 -97.16046 40021 ft 385 kts 332°
2026-04-17 16:02 88.74492 -98.27497 40016 ft 385 kts 332°
2026-04-17 16:02 88.79239 -99.43323 40018 ft 385 kts 332°
2026-04-17 16:03 88.83981 -100.63769 40019 ft 385 kts 332°
2026-04-17 16:03 88.88724 -101.89345 40024 ft 385 kts 332°
2026-04-17 16:04 88.93469 -103.20523 40012 ft 385 kts 332°
2026-04-17 16:04 88.98209 -104.57628 40014 ft 385 kts 332°
2026-04-17 16:05 89.02149 -105.76610 40022 ft 385 kts 332°
2026-04-17 16:05 89.06891 -107.26405 40018 ft 385 kts 332°
2026-04-17 16:06 89.11632 -108.84082 40022 ft 385 kts 332°
2026-04-17 16:06 89.16373 -110.50576 40020 ft 385 kts 332°
2026-04-17 16:07 89.21112 -112.26823 40024 ft 385 kts 332°
2026-04-17 16:07 89.25848 -114.13958 40031 ft 385 kts 332°
2026-04-17 16:08 89.30581 -116.13508 40027 ft 385 kts 332°
2026-04-17 16:08 89.35318 -118.27504 40032 ft 385 kts 332°
2026-04-17 16:09 89.40050 -120.57668 40031 ft 385 kts 332°
2026-04-17 16:09 89.44781 -123.06937 40033 ft 385 kts 332°
2026-04-17 16:10 89.49514 -125.78848 40029 ft 385 kts 332°
2026-04-17 16:10 89.54244 -128.77638 40033 ft 385 kts 332°
2026-04-17 16:11 89.58974 -132.09254 40032 ft 385 kts 332°
2026-04-17 16:11 89.63704 -135.81790 40032 ft 385 kts 331°
2026-04-17 16:12 89.68433 -140.06671 40040 ft 385 kts 331°
2026-04-17 16:12 89.73161 -145.00848 40045 ft 385 kts 331°
2026-04-17 16:13 89.77886 -150.91070 40048 ft 385 kts 331°
2026-04-17 16:13 89.82613 -158.24692 40046 ft 385 kts 331°
2026-04-17 16:14 89.89667 -174.13778 40411 ft 385 kts 331°
2026-04-17 16:14 89.92011 177.97853 41560 ft 378 kts 333°
2026-04-17 16:14 89.94294 167.64966 41891 ft 368 kts 333°
2026-04-17 16:15 89.98785 120.10892 41821 ft 369 kts 332°
2026-04-17 16:15 89.98937 -64.22569 40548 ft 375 kts 152°
2026-04-17 16:15 89.96639 -28.73698 40218 ft 375 kts 154°
2026-04-17 16:16 89.94357 -12.76198 40360 ft 370 kts 154°
2026-04-17 16:16 89.92098 -2.36442 40406 ft 369 kts 154°
2026-04-17 16:16 89.89816 5.47106 40183 ft 376 kts 154°
2026-04-17 16:16 89.87488 11.82109 39977 ft 383 kts 154°
2026-04-17 16:17 89.82799 21.63688 40077 ft 380 kts 154°
2026-04-17 16:17 89.80487 25.53196 40187 ft 376 kts 154°
2026-04-17 16:17 89.78185 28.97784 40193 ft 376 kts 154°
2026-04-17 16:18 89.73557 34.92335 40076 ft 380 kts 154°
2026-04-17 16:18 89.68908 39.92734 40115 ft 379 kts 154°
2026-04-17 16:19 89.64278 44.22050 40147 ft 378 kts 154°
2026-04-17 16:19 89.59645 47.99426 40113 ft 379 kts 154°
2026-04-17 16:20 89.55009 51.36198 40130 ft 379 kts 154°
2026-04-17 16:20 89.50374 54.39774 40059 ft 381 kts 153°
2026-04-17 16:21 89.48024 55.82986 39918 ft 386 kts 153°
2026-04-17 16:21 89.45655 57.20959 39869 ft 388 kts 153°
2026-04-17 16:21 89.40936 59.78823 40006 ft 383 kts 153°
2026-04-17 16:22 89.36251 62.15536 40005 ft 384 kts 153°
2026-04-17 16:22 89.31544 64.36526 39967 ft 385 kts 152°
2026-04-17 16:23 89.26837 66.42965 40010 ft 384 kts 152°
2026-04-17 16:23 89.22143 68.36205 40010 ft 384 kts 152°
2026-04-17 16:24 89.17440 70.18539 40003 ft 385 kts 152°
2026-04-17 16:24 89.12773 71.89531 40025 ft 384 kts 152°
2026-04-17 16:25 89.08077 73.52730 40026 ft 384 kts 152°
2026-04-17 16:25 89.03376 75.08012 40030 ft 384 kts 152°
2026-04-17 16:26 88.98678 76.55933 40041 ft 384 kts 152°
2026-04-17 16:26 88.93983 77.97161 40057 ft 384 kts 152°
2026-04-17 16:27 88.89285 79.32436 40065 ft 385 kts 152°
2026-04-17 16:27 88.84587 80.62161 40073 ft 385 kts 152°
2026-04-17 16:28 88.79898 81.86569 40112 ft 383 kts 152°
2026-04-17 16:28 88.75221 83.06000 40116 ft 383 kts 151°
2026-04-17 16:29 88.70534 84.21373 40107 ft 384 kts 151°
2026-04-17 16:29 88.65851 85.32610 40125 ft 383 kts 151°
2026-04-17 16:30 88.61172 86.40039 40127 ft 384 kts 151°
2026-04-17 16:30 88.56488 87.44101 40129 ft 384 kts 151°
2026-04-17 16:31 88.51810 88.44787 40144 ft 384 kts 151°
2026-04-17 16:31 88.47130 89.42458 40152 ft 384 kts 151°
2026-04-17 16:32 88.42465 90.36914 40243 ft 381 kts 151°
2026-04-17 16:32 88.37828 91.28161 40256 ft 381 kts 151°
2026-04-17 16:33 88.33178 92.17163 40229 ft 382 kts 151°
2026-04-17 16:33 88.28527 93.03816 40252 ft 381 kts 151°
2026-04-17 16:34 88.23885 93.88055 40255 ft 381 kts 151°
2026-04-17 16:34 88.19269 94.69717 40249 ft 381 kts 151°
2026-04-17 16:35 88.14628 95.49834 40256 ft 381 kts 151°
2026-04-17 16:35 88.09984 96.28070 40256 ft 381 kts 151°
2026-04-17 16:36 88.05343 97.04434 40266 ft 381 kts 151°
2026-04-17 16:36 88.00709 97.78976 40279 ft 381 kts 150°
2026-04-17 16:37 87.96075 98.51858 40271 ft 381 kts 150°
2026-04-17 16:37 87.91440 99.23167 40276 ft 381 kts 150°
2026-04-17 16:38 87.86808 99.92945 40275 ft 381 kts 150°
2026-04-17 16:38 87.82179 100.61211 40328 ft 380 kts 150°
2026-04-17 16:39 87.77570 101.27812 40357 ft 379 kts 150°
2026-04-17 16:39 87.72961 101.93076 40325 ft 380 kts 150°
2026-04-17 16:40 87.68343 102.57168 40336 ft 379 kts 150°
2026-04-17 16:40 87.63734 103.19909 40345 ft 379 kts 150°
2026-04-17 16:41 87.59126 103.81443 40349 ft 379 kts 150°
2026-04-17 16:41 87.54521 104.41805 40350 ft 379 kts 150°
2026-04-17 16:42 87.49945 105.00725 40352 ft 379 kts 150°
2026-04-17 16:42 87.45339 105.58999 40360 ft 379 kts 150°
2026-04-17 16:43 87.40738 106.16224 40362 ft 379 kts 150°
2026-04-17 16:43 87.36133 106.72519 40365 ft 379 kts 150°
2026-04-17 16:44 87.31541 107.27727 40402 ft 378 kts 150°
2026-04-17 16:44 87.26955 107.81966 40402 ft 378 kts 150°
2026-04-17 16:45 87.22364 108.35406 40391 ft 378 kts 150°
2026-04-17 16:45 87.17776 108.87982 40402 ft 378 kts 150°
2026-04-17 16:46 87.13193 109.39687 40415 ft 377 kts 150°
2026-04-17 16:46 87.08611 109.90583 40407 ft 378 kts 150°
2026-04-17 16:47 87.04030 110.40715 40408 ft 378 kts 150°
2026-04-17 16:47 86.99447 110.90130 40409 ft 378 kts 150°
2026-04-17 16:48 86.94868 111.38794 40406 ft 378 kts 150°
2026-04-17 16:48 86.90287 111.86791 40417 ft 377 kts 150°
2026-04-17 16:49 86.85726 112.33925 40484 ft 376 kts 150°
2026-04-17 16:49 86.81170 112.80352 40465 ft 376 kts 150°
2026-04-17 16:50 86.76607 113.26232 40468 ft 376 kts 150°
2026-04-17 16:50 86.72048 113.71463 40474 ft 376 kts 150°
2026-04-17 16:51 86.68263 114.08577 40470 ft 376 kts 150°
2026-04-17 16:51 86.62936 114.60136 40493 ft 376 kts 150°
2026-04-17 16:52 86.59161 114.96206 40507 ft 375 kts 150°
2026-04-17 16:52 86.54618 115.39133 40496 ft 375 kts 150°
2026-04-17 16:53 86.50072 115.81561 40489 ft 375 kts 150°
2026-04-17 16:53 86.45539 116.23329 40550 ft 373 kts 149°
2026-04-17 16:54 86.41018 116.64494 40534 ft 374 kts 149°
2026-04-17 16:54 86.36489 117.05251 40521 ft 374 kts 149°
2026-04-17 16:55 86.31963 117.45523 40542 ft 374 kts 149°
2026-04-17 16:55 86.27445 117.85276 40534 ft 374 kts 149°
2026-04-17 16:56 86.22922 118.24625 40534 ft 374 kts 149°
2026-04-17 16:56 86.18432 118.63251 40538 ft 374 kts 149°
2026-04-17 16:57 86.13914 119.01698 40544 ft 374 kts 149°
2026-04-17 16:57 86.09399 119.39713 40546 ft 374 kts 149°
2026-04-17 16:58 86.04895 119.77232 40597 ft 372 kts 150°
2026-04-17 16:58 86.00394 120.14320 40576 ft 373 kts 150°
2026-04-17 16:59 85.95891 120.51061 40572 ft 373 kts 150°
2026-04-17 16:59 85.91392 120.87383 40595 ft 373 kts 149°
2026-04-17 17:00 85.86894 121.23343 40588 ft 373 kts 149°
2026-04-17 17:00 85.82396 121.58950 40588 ft 373 kts 149°
2026-04-17 17:01 85.77899 121.94198 40606 ft 373 kts 149°
2026-04-17 17:01 85.73407 122.29073 40599 ft 373 kts 149°
2026-04-17 17:02 85.68913 122.63629 40595 ft 373 kts 150°
2026-04-17 17:02 85.64412 122.97884 40591 ft 373 kts 150°
2026-04-17 17:03 85.59918 123.31758 40597 ft 373 kts 150°
2026-04-17 17:03 85.55424 123.65313 40605 ft 373 kts 150°
2026-04-17 17:04 85.50933 123.98532 40622 ft 373 kts 150°
2026-04-17 17:04 85.46444 124.31436 40630 ft 373 kts 150°
2026-04-17 17:05 85.41954 124.64053 40634 ft 373 kts 150°
2026-04-17 17:05 85.37495 124.96166 40638 ft 373 kts 150°
2026-04-17 17:06 85.33010 125.28196 40641 ft 373 kts 150°
2026-04-17 17:06 85.28526 125.59895 40691 ft 372 kts 150°
2026-04-17 17:07 85.24048 125.91288 40694 ft 372 kts 150°
2026-04-17 17:07 85.19568 126.22430 40688 ft 372 kts 150°
2026-04-17 17:08 85.15089 126.53305 40691 ft 372 kts 150°
2026-04-17 17:08 85.10617 126.83884 40710 ft 372 kts 150°
2026-04-17 17:09 85.06144 127.14218 40703 ft 372 kts 150°
2026-04-17 17:09 85.01672 127.44301 40705 ft 372 kts 150°
2026-04-17 17:10 84.97205 127.74115 40727 ft 372 kts 150°
2026-04-17 17:10 84.92742 128.03659 40733 ft 371 kts 150°
2026-04-17 17:11 84.88277 128.32986 40726 ft 372 kts 150°
2026-04-17 17:11 84.83813 128.62077 40743 ft 371 kts 150°
2026-04-17 17:12 84.79352 128.90927 40741 ft 372 kts 150°
2026-04-17 17:12 84.74890 129.19566 40735 ft 372 kts 150°
2026-04-17 17:13 84.70430 129.47979 40756 ft 371 kts 150°
2026-04-17 17:13 84.65972 129.76169 40759 ft 371 kts 150°
2026-04-17 17:14 84.61515 130.04146 40759 ft 371 kts 150°
2026-04-17 17:15 84.54833 130.45710 40778 ft 371 kts 150°
2026-04-17 17:15 84.50382 130.73155 40777 ft 371 kts 150°
2026-04-17 17:16 84.45928 131.00424 40780 ft 371 kts 150°
2026-04-17 17:16 84.41481 131.27462 40808 ft 371 kts 150°
2026-04-17 17:17 84.37046 131.54247 40818 ft 370 kts 150°
2026-04-17 17:17 84.32636 131.80699 40791 ft 371 kts 150°
2026-04-17 17:18 84.28169 132.07330 40836 ft 370 kts 150°
2026-04-17 17:18 84.23744 132.33532 40845 ft 370 kts 150°
2026-04-17 17:19 84.19315 132.59590 40819 ft 370 kts 150°
2026-04-17 17:19 84.14917 132.85299 40849 ft 370 kts 150°
2026-04-17 17:20 84.10495 133.10987 40853 ft 370 kts 150°
2026-04-17 17:20 84.06075 133.36499 40850 ft 370 kts 150°
2026-04-17 17:21 84.01656 133.61844 40863 ft 370 kts 150°
2026-04-17 17:21 83.97240 133.87014 40872 ft 369 kts 150°
2026-04-17 17:22 83.92823 134.12041 40852 ft 370 kts 150°
2026-04-17 17:22 83.88407 134.36905 40865 ft 370 kts 150°
2026-04-17 17:23 83.83994 134.61608 40879 ft 370 kts 150°
2026-04-17 17:23 83.79582 134.86161 40863 ft 370 kts 150°
2026-04-17 17:24 83.75172 135.10562 40878 ft 370 kts 150°
2026-04-17 17:24 83.70764 135.34801 40884 ft 370 kts 150°
2026-04-17 17:25 83.66355 135.58898 40877 ft 370 kts 150°
2026-04-17 17:25 83.61943 135.82860 40883 ft 370 kts 150°
2026-04-17 17:26 83.57563 136.06500 40866 ft 370 kts 150°
2026-04-17 17:26 83.53151 136.30172 40864 ft 371 kts 150°
2026-04-17 17:27 83.48739 136.53706 40885 ft 370 kts 150°
2026-04-17 17:27 83.44334 136.77073 40883 ft 370 kts 150°
2026-04-17 17:28 83.39929 137.00312 40879 ft 370 kts 150°
2026-04-17 17:28 83.35523 137.23435 40884 ft 370 kts 150°
2026-04-17 17:29 83.31122 137.46417 40892 ft 370 kts 150°
2026-04-17 17:29 83.26716 137.69307 40872 ft 371 kts 150°
2026-04-17 17:30 83.22307 137.92107 40871 ft 371 kts 150°
2026-04-17 17:30 83.17902 138.14776 40885 ft 371 kts 150°
2026-04-17 17:31 83.13529 138.37170 40881 ft 371 kts 150°
2026-04-17 17:31 83.09135 138.59572 40941 ft 369 kts 150°
2026-04-17 17:32 83.04753 138.81809 40943 ft 370 kts 150°
2026-04-17 17:32 83.00337 139.04118 40930 ft 370 kts 150°
2026-04-17 17:33 82.95952 139.26164 40939 ft 370 kts 150°
2026-04-17 17:33 82.91602 139.47934 40948 ft 369 kts 150°
2026-04-17 17:34 82.87226 139.69738 40951 ft 370 kts 150°
2026-04-17 17:34 82.82853 139.91426 40947 ft 370 kts 150°
2026-04-17 17:35 82.78476 140.13039 40955 ft 370 kts 150°
2026-04-17 17:35 82.74104 140.34531 40951 ft 370 kts 150°
2026-04-17 17:36 82.69729 140.55937 40958 ft 370 kts 150°
2026-04-17 17:36 82.65359 140.77231 40960 ft 370 kts 150°
2026-04-17 17:37 82.60994 140.98412 40965 ft 369 kts 150°
2026-04-17 17:37 82.56631 141.19493 40964 ft 370 kts 150°
2026-04-17 17:38 82.52269 141.40486 40959 ft 370 kts 150°
2026-04-17 17:38 82.47909 141.61388 40968 ft 370 kts 150°
2026-04-17 17:39 82.43551 141.82195 40972 ft 370 kts 150°
2026-04-17 17:39 82.39195 142.02918 40973 ft 370 kts 150°
2026-04-17 17:40 82.34841 142.23550 40976 ft 370 kts 150°
2026-04-17 17:40 82.30519 142.43952 40975 ft 370 kts 150°
2026-04-17 17:41 82.26172 142.64399 40986 ft 370 kts 150°
2026-04-17 17:41 82.22529 142.81479 40992 ft 370 kts 150°
2026-04-17 17:42 82.18185 143.01764 40994 ft 370 kts 150°
2026-04-17 17:42 82.13870 143.21836 40996 ft 370 kts 150°
2026-04-17 17:43 82.09530 143.41944 40998 ft 370 kts 150°
2026-04-17 17:43 82.05190 143.61977 41004 ft 370 kts 150°
2026-04-17 17:44 82.00854 143.81910 41006 ft 370 kts 150°
2026-04-17 17:44 81.96517 144.01775 40987 ft 370 kts 150°
2026-04-17 17:45 81.92182 144.21555 40989 ft 370 kts 150°
2026-04-17 17:45 81.87849 144.41245 40993 ft 370 kts 150°
2026-04-17 17:46 81.83520 144.60846 40998 ft 370 kts 150°
2026-04-17 17:46 81.79187 144.80388 40997 ft 370 kts 150°
2026-04-17 17:47 81.74858 144.99834 41000 ft 370 kts 150°
2026-04-17 17:47 81.70529 145.19185 41004 ft 370 kts 150°
2026-04-17 17:48 81.66200 145.38452 40987 ft 370 kts 150°
2026-04-17 17:48 81.61873 145.57620 40997 ft 370 kts 150°
2026-04-17 17:49 81.57547 145.76696 40996 ft 370 kts 150°
2026-04-17 17:49 81.53219 145.95698 41001 ft 370 kts 150°
2026-04-17 17:50 81.48896 146.14602 41010 ft 370 kts 150°
2026-04-17 17:50 81.44569 146.33451 41008 ft 370 kts 150°
2026-04-17 17:51 81.40246 146.52204 41013 ft 370 kts 150°
2026-04-17 17:51 81.35925 146.70886 41019 ft 370 kts 150°
2026-04-17 17:52 81.31603 146.89503 41031 ft 370 kts 150°
2026-04-17 17:52 81.27312 147.07924 41042 ft 370 kts 149°
2026-04-17 17:53 81.22969 147.26512 41039 ft 370 kts 149°
2026-04-17 17:53 81.18682 147.44799 41041 ft 370 kts 149°
2026-04-17 17:54 81.14370 147.63142 41047 ft 370 kts 149°
2026-04-17 17:54 81.10061 147.81413 41051 ft 370 kts 149°
2026-04-17 17:55 81.05751 147.99633 41028 ft 371 kts 149°
2026-04-17 17:55 81.01436 148.17822 41011 ft 371 kts 149°
2026-04-17 17:56 80.97123 148.35942 41032 ft 371 kts 149°
2026-04-17 17:56 80.92814 148.53996 41039 ft 371 kts 149°
2026-04-17 17:57 80.88506 148.71991 41037 ft 371 kts 149°
2026-04-17 17:57 80.84199 148.89931 41044 ft 371 kts 149°
2026-04-17 17:58 80.79896 149.07802 41049 ft 371 kts 149°
2026-04-17 17:58 80.75592 149.25627 41053 ft 371 kts 149°
2026-04-17 17:59 80.71288 149.43396 41017 ft 372 kts 149°
2026-04-17 17:59 80.66976 149.61147 41027 ft 372 kts 149°
2026-04-17 18:00 80.62672 149.78819 41042 ft 372 kts 149°
2026-04-17 18:00 80.58368 149.96440 41039 ft 372 kts 149°
2026-04-17 18:01 80.54068 150.13999 41067 ft 372 kts 149°
2026-04-17 18:01 80.49768 150.31511 41072 ft 372 kts 149°
2026-04-17 18:02 80.45500 150.48845 41077 ft 372 kts 149°
2026-04-17 18:02 80.41205 150.66249 41060 ft 372 kts 149°
2026-04-17 18:03 80.36910 150.83606 41061 ft 373 kts 149°
2026-04-17 18:03 80.32618 151.00909 41076 ft 372 kts 149°
2026-04-17 18:04 80.28326 151.18164 41081 ft 373 kts 149°
2026-04-17 18:04 80.24037 151.35358 41090 ft 373 kts 149°
2026-04-17 18:05 80.19750 151.52497 41099 ft 373 kts 149°
2026-04-17 18:05 80.15466 151.69582 41106 ft 373 kts 149°
2026-04-17 18:06 80.11183 151.86616 41088 ft 373 kts 149°
2026-04-17 18:06 80.06897 152.03617 41096 ft 373 kts 149°
2026-04-17 18:07 80.02618 152.20546 41104 ft 373 kts 149°
2026-04-17 18:07 79.98336 152.37447 41107 ft 373 kts 149°
2026-04-17 18:08 79.94060 152.54282 41118 ft 373 kts 149°
2026-04-17 18:08 79.89786 152.71065 41124 ft 373 kts 148°
2026-04-17 18:09 79.85509 152.87814 41142 ft 373 kts 148°
2026-04-17 18:09 79.81237 153.04506 41139 ft 373 kts 148°
2026-04-17 18:10 79.76967 153.21134 41146 ft 373 kts 148°
2026-04-17 18:10 79.72695 153.37712 41150 ft 373 kts 148°
2026-04-17 18:11 79.68425 153.54223 41162 ft 373 kts 148°
2026-04-17 18:11 79.64153 153.70680 41170 ft 373 kts 148°
2026-04-17 18:12 79.59883 153.87078 41184 ft 373 kts 148°
2026-04-17 18:12 79.55645 154.03299 41190 ft 373 kts 148°
2026-04-17 18:13 79.51378 154.19574 41194 ft 373 kts 148°
2026-04-17 18:13 79.47112 154.35786 41184 ft 373 kts 148°
2026-04-17 18:14 79.42844 154.51947 41197 ft 373 kts 148°
2026-04-17 18:14 79.38578 154.68053 41204 ft 373 kts 148°
2026-04-17 18:15 79.34313 154.84104 41210 ft 373 kts 148°
2026-04-17 18:15 79.30042 155.00128 41158 ft 376 kts 148°
2026-04-17 18:16 79.25747 155.16185 41150 ft 376 kts 148°
2026-04-17 18:16 79.21466 155.32146 41201 ft 375 kts 148°
2026-04-17 18:17 79.17187 155.48047 41179 ft 376 kts 148°
2026-04-17 18:17 79.10759 155.71829 41197 ft 375 kts 148°
2026-04-17 18:18 79.06506 155.87508 41203 ft 376 kts 148°
2026-04-17 18:18 79.02223 156.03249 41209 ft 376 kts 148°
2026-04-17 18:19 78.97940 156.18942 41218 ft 376 kts 148°
2026-04-17 18:19 78.93659 156.34582 41236 ft 376 kts 148°
2026-04-17 18:20 78.89378 156.50178 41232 ft 376 kts 148°
2026-04-17 18:20 78.85102 156.65711 41243 ft 376 kts 148°
2026-04-17 18:21 78.80826 156.81199 41255 ft 376 kts 148°
2026-04-17 18:21 78.76551 156.96643 41259 ft 376 kts 148°
2026-04-17 18:22 78.72276 157.12042 41266 ft 376 kts 148°
2026-04-17 18:22 78.68002 157.27396 41295 ft 376 kts 148°
2026-04-17 18:23 78.63731 157.42699 41295 ft 376 kts 148°
2026-04-17 18:23 78.59458 157.57965 41301 ft 376 kts 148°
2026-04-17 18:24 78.55190 157.73175 41306 ft 376 kts 148°
2026-04-17 18:24 78.50924 157.88335 41316 ft 376 kts 148°
2026-04-17 18:25 78.46659 158.03454 41314 ft 376 kts 148°
2026-04-17 18:25 78.42391 158.18540 41332 ft 376 kts 147°
2026-04-17 18:26 78.38128 158.33571 41337 ft 376 kts 147°
2026-04-17 18:26 78.33863 158.48568 41346 ft 376 kts 147°
2026-04-17 18:27 78.29599 158.63526 41357 ft 376 kts 147°
2026-04-17 18:27 78.25339 158.78432 41359 ft 376 kts 147°
2026-04-17 18:28 78.21800 158.90787 41364 ft 376 kts 147°
2026-04-17 18:28 78.17542 159.05621 41377 ft 376 kts 147°
2026-04-17 18:29 78.13285 159.20412 41389 ft 376 kts 147°
2026-04-17 18:29 78.11872 159.25311 41403 ft 376 kts 147°